TimeCDT,TemperatureF,Dew PointF,Humidity,Sea Level PressureIn,VisibilityMPH,Wind Direction,Wind SpeedMPH,Gust SpeedMPH,PrecipitationIn,Events,Conditions,WindDirDegrees,DateUTC
12:53 AM,39.9,37.9,93,30.02,10.0,North,11.5,-,N/A,,Overcast,350,2013-10-30 05:53:00
1:53 AM,39.9,39.0,97,30.00,6.0,North,9.2,-,N/A,,Overcast,360,2013-10-30 06:53:00
2:43 AM,39.2,37.4,93,29.97,2.5,North,9.2,-,N/A,,Overcast,360,2013-10-30 07:43:00
2:53 AM,39.0,37.9,96,29.99,3.0,North,11.5,-,N/A,,Overcast,10,2013-10-30 07:53:00
3:19 AM,39.2,37.4,93,29.95,2.5,North,8.1,-,N/A,,Overcast,10,2013-10-30 08:19:00
3:53 AM,39.0,37.9,96,29.97,2.5,NNE,10.4,-,N/A,,Overcast,20,2013-10-30 08:53:00
4:48 AM,39.2,37.4,93,29.92,1.8,North,8.1,-,N/A,,Overcast,360,2013-10-30 09:48:00
4:53 AM,39.0,37.9,96,29.93,1.8,NNE,9.2,-,N/A,,Overcast,30,2013-10-30 09:53:00
5:02 AM,39.2,37.4,93,29.90,1.8,NE,10.4,-,0.00,Rain-Thunderstorm,Light Rain,50,2013-10-30 10:02:00
5:29 AM,37.4,37.4,100,29.94,1.8,NW,3.5,-,0.01,Rain,Light Rain,320,2013-10-30 10:29:00
5:45 AM,39.2,37.4,93,29.92,2.0,ENE,5.8,-,0.01,Rain,Light Rain,60,2013-10-30 10:45:00
5:53 AM,37.9,37.0,97,29.96,2.5,NNE,5.8,-,0.01,,Overcast,20,2013-10-30 10:53:00
6:18 AM,37.4,37.4,100,29.94,1.5,North,8.1,-,N/A,,Overcast,350,2013-10-30 11:18:00
6:53 AM,37.9,37.0,97,29.96,1.5,NNW,6.9,-,N/A,,Overcast,340,2013-10-30 11:53:00
6:58 AM,37.4,37.4,100,29.93,3.0,NNW,8.1,-,N/A,,Overcast,340,2013-10-30 11:58:00
7:53 AM,37.0,36.0,96,29.95,10.0,NNE,6.9,-,N/A,,Overcast,20,2013-10-30 12:53:00
8:46 AM,37.4,35.6,93,29.90,2.0,North,6.9,-,N/A,,Overcast,10,2013-10-30 13:46:00
8:53 AM,37.9,36.0,93,29.93,2.0,NNE,5.8,-,N/A,,Overcast,20,2013-10-30 13:53:00
9:00 AM,37.4,37.4,100,29.89,1.8,NNE,5.8,-,N/A,,Overcast,20,2013-10-30 14:00:00
9:09 AM,37.4,37.4,100,29.90,2.0,North,4.6,-,N/A,,Overcast,10,2013-10-30 14:09:00
9:24 AM,37.4,37.4,100,29.89,3.0,North,5.8,-,N/A,,Overcast,360,2013-10-30 14:24:00
9:53 AM,39.0,37.0,93,29.94,6.0,NNW,5.8,-,N/A,,Overcast,340,2013-10-30 14:53:00
10:53 AM,39.9,37.9,93,29.95,4.0,NNW,5.8,-,N/A,,Overcast,330,2013-10-30 15:53:00
11:53 AM,41.0,39.0,93,29.91,5.0,NNW,6.9,-,N/A,,Overcast,340,2013-10-30 16:53:00
12:53 PM,42.1,39.9,92,29.92,8.0,NW,5.8,-,N/A,,Overcast,320,2013-10-30 17:53:00
1:53 PM,44.1,39.9,85,29.88,10.0,NNW,6.9,-,N/A,,Overcast,330,2013-10-30 18:53:00
2:14 PM,44.6,41.0,87,29.84,10.0,NNW,5.8,-,N/A,,Overcast,340,2013-10-30 19:14:00
2:53 PM,46.0,41.0,83,29.86,10.0,NW,8.1,-,N/A,,Overcast,310,2013-10-30 19:53:00
3:01 PM,46.4,41.0,81,29.82,10.0,NW,8.1,-,N/A,,Overcast,310,2013-10-30 20:01:00
3:53 PM,46.9,41.0,80,29.83,10.0,WNW,6.9,-,N/A,,Overcast,300,2013-10-30 20:53:00
4:15 PM,46.4,39.2,76,29.80,10.0,NW,5.8,-,N/A,,Overcast,310,2013-10-30 21:15:00
4:53 PM,48.0,41.0,77,29.81,10.0,North,4.6,-,N/A,,Scattered Clouds,350,2013-10-30 21:53:00
5:53 PM,48.0,41.0,77,29.81,10.0,Calm,Calm,-,N/A,,Clear,0,2013-10-30 22:53:00
6:53 PM,44.1,39.9,85,29.81,10.0,Calm,Calm,-,N/A,,Clear,0,2013-10-30 23:53:00
7:53 PM,43.0,39.0,86,29.84,10.0,Calm,Calm,-,N/A,,Clear,0,2013-10-31 00:53:00
8:29 PM,39.2,37.4,93,29.81,6.0,Calm,Calm,-,N/A,,Overcast,0,2013-10-31 01:29:00
8:53 PM,39.9,37.0,89,29.85,10.0,WSW,3.5,-,N/A,,Overcast,250,2013-10-31 01:53:00
9:18 PM,39.2,37.4,93,29.80,8.0,Calm,Calm,-,N/A,,Scattered Clouds,0,2013-10-31 02:18:00
9:41 PM,37.4,35.6,93,29.81,1.8,NW,4.6,-,N/A,,Clear,310,2013-10-31 02:41:00
9:53 PM,37.0,35.1,93,29.84,1.5,Calm,Calm,-,N/A,,Partly Cloudy,0,2013-10-31 02:53:00
9:59 PM,37.4,35.6,93,29.80,0.8,NNW,3.5,-,N/A,,Mist,340,2013-10-31 02:59:00
10:53 PM,36.0,35.1,97,29.83,0.2,Calm,Calm,-,N/A,Fog,Fog,0,2013-10-31 03:53:00
11:53 PM,32.0,32.0,100,29.81,0.2,Calm,Calm,-,N/A,Fog,Fog,0,2013-10-31 04:53:00